GFSNE_con_lsi_057.txt.gz
Lid_Strength_Index
1 1 1 1 1 0 0 2 3 5 5 2 2 -0 -0 -1 -0 -1 -1 1 1 1 1 2 1 1 0 -0 1 1 1 1 0 -0 -0 -1 -1 -1
1 1 1 1 0 1 1 1 1 3 5 2 1 -0 -1 -1 -1 -1 -1 1 1 1 1 2 2 2 1 1 2 2 1 1 1 1 0 -0 -0 -0
1 1 1 0 1 1 1 1 1 2 4 2 0 0 0 -0 -1 -1 -1 -1 -1 1 1 2 3 2 3 3 3 2 2 2 2 1 1 1 1 1
1 1 1 1 1 0 1 0 1 1 2 3 1 1 1 -0 -0 -0 -0 -1 -1 2 3 3 4 4 4 4 4 4 4 3 3 2 2 1 1 1
1 1 1 1 1 1 1 1 1 1 1 2 2 1 1 -0 0 -0 -0 -1 -1 1 3 4 4 5 5 4 4 4 5 5 5 4 3 2 1 1
1 1 1 1 1 1 1 1 0 1 1 2 2 2 2 1 1 2 2 0 1 -0 2 2 3 4 4 4 4 4 5 6 6 5 5 4 4 4
0 0 0 1 2 2 1 1 0 1 2 1 2 2 2 2 3 2 2 2 1 0 0 -0 -0 -0 2 4 2 3 5 6 6 5 5 6 6 5
1 1 0 2 3 5 3 5 2 1 1 2 2 3 3 2 1 2 2 3 4 -0 1 1 0 1 1 0 3 6 6 6 6 6 6 7 7 7
1 1 1 1 1 0 4 5 4 4 3 0 2 2 2 1 1 2 2 2 2 1 1 3 0 2 -0 2 5 7 7 6 6 6 7 8 8 8
1 0 1 1 1 1 1 1 1 0 0 0 0 0 0 -0 0 0 1 1 0 0 -1 3 1 2 1 2 6 7 7 7 7 7 7 7 8 9
0 0 0 0 6 9 1 1 1 1 6 7 6 7 6 5 3 0 2 2 3 2 0 1 2 2 1 2 4 7 7 8 7 7 8 8 8 8
0 1 7 2 11 10 1 1 2 1 1 1 0 3 2 2 6 -0 1 3 2 3 1 2 2 2 3 0 0 2 4 7 8 8 7 7 8 2
2 1 1 11 12 11 9 0 2 1 2 1 1 1 0 0 0 -0 -1 0 2 2 0 1 2 2 2 2 1 -0 0 0 1 2 8 8 8 5
2 1 3 12 12 10 5 9 9 5 1 1 1 2 1 1 0 -0 -1 -1 -1 -0 -1 -1 1 1 2 2 3 1 0 -0 -0 -0 -1 3 8 9
2 7 11 11 11 8 11 10 6 1 2 2 2 2 1 0 -0 -0 -1 -1 -1 -1 -1 -1 -0 0 1 2 2 2 2 1 -0 0 0 -0 1 1
7 3 3 5 7 4 4 3 1 1 2 2 2 1 0 1 1 0 1 1 1 1 -1 -1 -1 -0 1 1 1 2 1 2 0 0 0 -0 -0 1
1 1 1 2 2 2 1 1 1 1 2 1 1 2 1 1 1 0 1 1 2 2 2 0 -1 -1 -0 0 2 1 1 2 2 1 1 1 1 0
2 2 2 2 2 2 2 2 1 2 1 1 1 1 2 2 2 1 1 1 2 2 2 1 1 1 1 0 1 1 1 1 1 0 0 2 2 0
2 2 2 2 2 2 2 2 2 1 0 1 1 1 1 1 2 2 1 2 2 2 1 1 1 2 4 5 1 6 1 1 1 2 1 1 2 1
1 2 2 2 2 2 1 1 1 1 1 1 1 1 1 2 2 2 2 2 2 2 2 2 2 2 3 4 3 1 9 1 1 1 2 1 7 9
2 2 2 1 1 1 1 1 1 1 1 1 1 1 1 1 2 1 2 7 6 2 3 2 2 9 1 1 3 3 1 9 5 2 1 2 2 2
2 2 1 1 1 1 1 1 1 1 1 1 1 1 1 1 2 2 2 2 2 2 3 1 0 0 1 2 3 2 2 1 6 9 9 6 3 4
2 2 1 1 1 1 1 1 1 1 1 1 1 1 1 3 1 2 1 1 1 2 2 2 2 1 1 2 3 2 2 2 4 3 2 9 8 9

GFSNE_con_lsi_060.txt.gz
Lid_Strength_Index
1 1 2 1 1 1 2 2 4 7 6 3 3 1 0 0 1 0 0 2 1 2 2 1 1 1 1 1 1 1 1 1 0 0 -0 -1 -1 -1
1 2 2 1 1 1 1 2 2 4 6 3 2 1 1 0 -0 0 0 1 1 2 1 1 2 2 2 1 1 1 1 1 2 1 1 0 -0 -1
1 2 2 1 2 1 1 2 2 3 4 3 2 1 1 1 1 0 0 0 2 1 1 2 3 3 2 2 2 2 2 2 2 2 1 1 0 0
2 2 2 1 2 2 2 2 2 2 3 4 3 2 2 1 1 1 0 -0 0 2 2 3 3 4 3 4 4 4 4 4 3 2 2 2 1 1
2 2 2 2 2 2 2 2 2 2 2 3 3 2 2 1 2 1 1 1 0 2 3 4 4 4 5 5 5 5 6 5 5 4 3 3 2 2
1 1 1 2 2 2 2 2 2 2 2 3 3 3 2 2 2 2 3 1 1 1 2 3 3 4 5 5 4 4 6 6 6 5 5 4 4 3
1 1 1 1 2 2 2 2 2 3 3 3 4 3 3 3 3 2 3 2 2 1 1 1 1 2 3 3 2 4 6 6 6 6 6 6 6 5
2 2 2 4 5 6 6 5 3 2 3 3 3 4 3 3 2 3 3 3 5 0 1 2 1 1 1 1 4 6 6 6 6 6 6 6 6 7
2 2 2 1 3 3 5 5 6 6 3 2 3 3 3 2 2 3 3 3 3 2 1 3 1 2 0 2 6 7 7 7 6 6 6 7 7 8
1 1 1 1 1 1 1 2 1 1 1 1 1 2 1 1 1 1 2 2 2 1 1 4 1 2 1 2 7 7 7 8 7 7 7 7 8 9
1 1 1 1 6 8 2 2 2 2 7 7 6 7 6 5 3 1 3 3 4 3 1 3 2 2 2 2 4 7 7 8 7 7 7 8 8 8
1 3 7 2 11 10 2 2 3 2 1 1 2 5 3 4 6 1 2 3 4 4 2 3 3 2 4 1 2 4 4 7 8 8 8 8 8 6
2 2 3 12 13 12 9 2 2 2 3 1 1 1 1 1 1 0 0 1 3 3 1 1 2 2 3 3 2 1 2 3 4 6 8 8 8 6
2 2 8 13 12 10 6 11 10 6 1 2 2 2 2 2 1 1 0 0 0 1 0 1 2 2 3 4 4 1 1 1 1 1 1 4 8 9
1 8 12 12 12 9 12 11 8 1 2 3 3 2 2 1 1 1 1 1 0 0 -0 1 1 2 2 3 4 3 3 1 1 1 1 1 2 4
8 6 6 6 7 6 5 4 1 1 2 2 3 2 1 1 2 1 2 2 2 2 0 0 0 1 2 2 2 3 2 3 1 1 1 1 0 1
3 2 2 2 2 2 2 2 1 1 2 2 2 2 2 2 2 1 2 2 3 3 2 1 1 0 1 2 3 2 2 2 2 2 2 2 2 1
2 3 3 3 3 3 2 2 2 2 2 2 2 2 2 2 2 2 2 2 3 3 3 2 2 2 2 1 2 2 2 2 2 1 1 2 2 1
3 3 3 3 3 2 2 2 3 2 1 2 2 2 2 2 2 3 2 2 3 3 2 2 2 3 5 6 2 5 2 2 2 2 2 2 3 3
2 3 3 2 2 2 2 2 2 2 2 2 2 2 2 2 3 3 3 3 3 3 3 2 3 3 4 4 4 2 10 2 2 2 2 3 7 9
2 2 2 2 2 2 2 2 2 2 2 2 2 2 2 2 3 2 3 8 7 3 3 3 2 8 2 2 4 3 3 10 5 4 3 3 3 4
2 2 2 1 1 1 1 1 2 2 2 2 2 2 2 2 2 2 2 3 3 3 3 2 1 1 2 3 4 3 2 3 6 8 9 6 4 6
2 2 2 1 1 1 1 1 1 2 1 1 1 2 2 2 2 2 2 2 2 2 2 2 2 2 2 2 5 5 5 5 5 6 4 7 8 8

GFSNE_con_lsi_063.txt.gz
Lid_Strength_Index
1 1 4 2 3 3 3 3 5 7 6 4 3 2 2 2 1 1 1 2 2 2 3 2 2 1 1 1 1 1 1 0 0 0 -1 -1 -1 -1
1 1 1 2 3 3 3 3 4 4 6 4 3 2 2 1 1 1 1 2 1 2 2 2 2 2 2 2 2 1 1 2 2 1 1 0 -0 -0
1 2 2 3 2 3 3 3 3 4 5 4 3 3 3 2 2 1 1 1 2 2 1 2 3 3 3 3 2 1 2 2 2 2 1 1 1 0
2 2 2 1 2 2 3 3 3 3 4 5 4 3 3 3 2 2 1 0 2 2 2 3 4 5 4 4 3 3 4 3 3 3 2 2 1 0
2 2 2 2 3 3 4 3 3 2 3 4 4 3 3 3 3 2 2 3 2 2 3 4 4 4 4 4 4 4 6 6 5 5 3 3 2 1
2 2 2 2 2 3 3 3 3 3 3 4 4 4 4 3 3 3 4 3 3 1 3 3 3 4 5 5 4 4 6 6 6 6 5 5 4 3
2 1 1 2 4 3 3 3 3 3 4 5 5 4 5 4 5 3 4 3 3 2 3 3 3 3 3 4 2 3 6 6 6 6 6 6 6 6
2 2 2 5 5 6 6 4 3 3 4 4 4 5 5 4 4 3 4 4 5 1 2 2 0 1 1 1 4 6 6 6 6 6 6 6 7 6
2 3 4 4 5 5 7 7 7 5 4 3 4 4 4 3 3 4 3 4 4 3 2 3 1 2 1 1 6 7 7 7 7 6 7 7 7 7
2 3 3 5 5 5 4 4 4 3 3 2 2 3 2 2 2 2 3 3 3 2 3 5 2 2 1 2 6 7 8 7 7 7 7 7 8 8
2 2 3 3 8 9 4 3 4 4 7 8 5 7 7 6 3 2 3 3 4 3 2 4 4 2 1 2 3 7 8 8 7 7 7 7 8 8
4 4 7 3 11 10 3 3 4 4 3 3 4 6 5 6 6 2 3 3 4 5 3 4 4 2 4 2 2 3 5 7 7 8 8 8 8 5
4 5 6 11 12 12 7 3 3 3 4 2 3 3 2 3 3 2 2 2 3 4 3 3 4 4 3 3 3 2 2 4 4 5 9 8 9 6
3 4 9 13 13 12 7 10 11 6 2 2 3 2 3 3 2 2 2 2 1 2 2 2 4 3 4 5 4 3 3 2 2 2 2 5 9 9
3 8 13 13 13 11 12 12 10 3 3 3 3 3 2 2 2 2 2 2 2 1 0 2 2 3 3 4 4 4 3 2 2 2 2 2 2 4
10 8 8 8 8 9 7 6 3 2 2 2 3 2 2 3 3 3 3 3 3 3 2 1 1 2 3 3 3 4 3 3 2 1 2 1 1 1
6 4 4 4 4 4 4 3 2 2 2 2 2 2 2 3 3 3 3 3 4 4 3 1 2 2 2 3 4 4 3 3 2 2 2 2 1 1
4 4 4 3 3 4 4 3 3 3 2 2 2 2 3 2 2 2 3 4 4 4 3 3 2 3 3 2 3 3 3 3 2 2 2 3 3 3
3 3 3 3 3 3 3 3 4 3 2 2 2 2 2 2 3 3 2 3 3 3 3 2 3 3 5 6 3 6 2 2 2 2 2 3 3 5
3 3 3 3 3 3 3 3 2 2 2 2 2 2 2 2 3 3 3 3 4 4 4 3 3 4 4 4 4 3 12 3 2 3 3 6 10 11
3 3 3 3 3 3 3 2 2 2 3 2 2 2 2 3 3 4 3 8 7 4 4 4 3 10 3 3 5 4 4 8 6 4 5 4 6 6
3 2 3 3 3 3 3 2 3 3 3 2 3 3 3 2 3 3 3 4 5 4 3 3 3 3 2 3 4 3 3 3 6 7 8 6 6 6
3 3 3 2 2 2 2 2 2 2 2 3 3 2 2 3 3 2 3 3 3 3 3 3 3 3 4 5 7 7 7 7 9 9 8 7 7 7

GFSNE_con_lsi_069.txt.gz
Lid_Strength_Index
2 1 2 3 3 3 1 2 4 7 6 4 3 3 2 3 2 2 3 2 2 3 3 3 3 2 2 1 1 1 1 0 0 -0 -1 -1 -1 -1
2 2 2 2 2 2 2 2 3 4 6 4 4 4 3 2 2 2 2 2 2 2 2 2 3 3 3 2 2 2 1 1 1 1 0 -0 -0 -0
2 2 2 2 2 1 2 2 2 3 5 5 5 4 4 4 3 3 2 2 2 3 2 3 3 3 3 3 3 2 2 2 2 1 1 1 1 0
2 2 2 1 3 2 2 2 3 4 5 5 5 5 5 4 3 3 2 1 3 3 4 4 4 5 5 4 4 5 4 4 4 3 3 2 2 0
2 2 2 2 2 2 2 2 4 4 5 5 5 5 5 4 5 4 3 4 3 3 4 4 4 4 5 5 5 4 5 5 5 5 3 3 2 1
1 1 1 2 2 2 2 2 4 4 5 5 5 6 6 5 5 5 5 2 4 2 3 3 3 3 4 4 3 3 4 5 6 6 5 5 5 4
1 1 1 2 4 3 2 4 4 5 5 6 6 7 7 5 6 5 5 4 4 3 3 2 2 2 2 3 2 2 4 5 7 6 6 6 7 6
2 2 1 3 4 7 7 7 4 5 5 6 6 6 6 6 6 5 5 4 4 3 3 3 3 3 2 1 3 5 6 6 6 7 7 7 7 8
2 2 2 1 4 3 8 9 8 8 6 4 5 5 6 5 5 5 5 5 5 4 4 3 1 2 1 1 5 6 7 7 7 7 7 7 8 8
1 2 2 2 2 3 4 4 4 5 5 4 3 4 4 4 4 4 4 4 4 4 4 5 4 4 1 1 5 6 7 8 7 7 7 8 9 9
1 1 1 2 7 11 3 4 5 6 9 9 8 7 8 8 5 3 4 5 5 5 4 5 4 5 3 2 2 6 7 7 7 7 7 8 8 9
2 2 8 4 11 12 3 5 5 6 5 5 5 6 7 8 8 3 3 5 6 6 4 4 4 5 5 4 2 3 3 7 8 8 8 8 8 4
2 2 3 10 12 12 8 4 5 5 7 4 5 4 4 4 4 3 3 3 5 5 4 3 5 5 5 4 2 2 2 3 4 5 9 9 9 6
3 2 4 12 12 12 9 10 12 8 4 5 5 5 5 4 4 3 3 3 3 3 3 3 5 5 5 5 5 3 3 2 3 2 2 5 9 9
2 4 9 12 13 11 10 12 10 4 4 5 5 5 4 4 4 4 3 3 3 2 2 3 4 5 5 5 5 5 3 4 2 2 2 2 2 3
9 9 9 8 9 7 9 9 4 3 3 4 5 4 3 4 4 4 4 4 4 4 3 2 3 3 4 5 5 5 5 4 3 2 2 2 2 2
7 7 5 5 6 5 5 4 3 3 4 4 3 3 3 3 3 4 4 4 5 5 4 2 2 3 4 4 5 5 5 5 4 3 2 3 2 1
6 4 4 4 4 4 4 4 3 4 4 3 2 2 4 4 3 4 4 5 5 5 5 4 2 3 4 5 6 4 4 4 3 3 2 3 3 4
4 3 4 4 5 5 4 4 4 3 3 2 2 3 3 3 3 4 4 5 5 4 5 4 3 4 6 6 4 9 4 4 4 3 4 6 4 7
3 5 5 5 5 5 5 5 4 4 4 3 4 3 3 3 3 4 4 3 3 3 5 5 4 4 5 6 6 4 11 4 4 4 4 6 8 10
4 4 4 4 4 4 4 4 4 4 4 4 4 3 3 3 4 4 6 9 6 4 5 4 4 11 4 4 6 4 4 9 7 6 7 7 6 6
4 4 4 3 3 3 3 3 4 4 4 4 3 2 3 3 4 4 5 5 5 5 4 3 3 4 4 4 6 7 8 8 9 9 10 9 9 11
4 3 3 3 3 3 3 3 3 3 2 2 3 3 3 5 4 4 4 4 5 5 5 5 6 6 8 9 10 10 11 10 10 11 13 11 11 11

GFSNE_con_lsi_072.txt.gz
Lid_Strength_Index
1 1 1 1 3 2 2 3 3 6 5 2 2 1 0 1 1 0 1 2 2 3 3 3 2 2 2 2 1 1 1 0 -0 -0 -1 -1 -1 -1
1 1 1 2 1 1 2 2 2 3 5 2 2 2 1 1 1 1 1 2 3 3 2 2 3 3 3 3 2 2 1 1 1 1 0 -0 -0 -0
1 1 1 2 2 1 1 1 2 2 4 3 2 2 2 2 1 1 0 0 1 4 3 4 5 3 3 3 2 2 2 2 2 1 1 1 0 0
1 1 1 1 2 2 1 2 2 2 3 4 3 3 2 2 2 1 1 1 1 3 4 4 5 5 5 5 5 5 6 5 5 4 3 3 2 1
1 1 1 1 2 2 2 2 2 2 2 3 3 3 3 3 3 2 2 1 1 2 3 4 4 4 4 4 4 5 5 5 5 5 4 3 2 2
1 1 1 1 2 2 2 2 2 2 3 3 4 3 3 3 3 3 2 1 1 1 3 3 3 3 3 3 3 3 4 5 5 6 6 5 4 4
1 1 1 1 2 2 1 2 2 2 3 3 4 4 4 4 3 3 3 2 1 1 2 1 1 1 1 2 2 2 4 5 5 6 7 5 6 6
2 1 1 1 1 5 6 7 3 3 3 3 3 4 4 3 4 4 3 3 4 1 1 1 0 0 -0 -0 3 5 5 6 6 6 6 7 8 8
1 1 1 1 1 1 4 8 8 8 6 2 3 3 3 3 3 4 3 2 3 1 1 2 0 1 -0 0 4 6 6 7 7 7 7 7 8 8
1 1 1 1 1 1 1 2 3 4 4 3 2 2 1 2 2 2 1 1 1 1 1 3 1 1 -0 -1 5 6 6 7 7 7 7 7 8 8
1 1 1 1 5 9 2 2 3 4 7 9 8 9 9 8 4 1 2 3 3 2 1 2 2 2 2 1 -0 6 7 7 7 7 7 7 8 9
1 1 6 4 8 11 3 2 4 3 4 5 5 6 7 7 8 0 1 3 3 3 1 2 3 1 3 0 -0 0 2 6 7 7 7 7 8 2
2 2 1 7 10 13 10 2 3 3 5 3 3 3 3 3 2 1 0 1 2 3 1 1 2 2 2 2 1 1 1 1 1 2 8 8 9 5
2 1 1 8 12 13 10 10 12 7 3 4 3 3 3 2 1 1 0 -0 0 0 1 -0 2 2 2 3 3 1 2 1 1 2 1 4 8 9
2 3 9 12 13 11 12 12 10 3 4 3 3 3 1 1 1 1 1 0 0 -0 0 0 0 1 1 2 2 2 2 0 1 2 1 1 1 2
4 4 6 8 9 7 8 7 3 3 3 2 2 2 2 2 1 1 1 1 1 1 0 -0 -0 0 1 1 1 2 1 2 0 1 1 2 1 1
4 3 3 4 5 4 5 4 3 3 2 2 2 2 2 1 2 1 1 1 2 2 2 1 0 0 2 1 2 1 1 1 0 0 1 2 3 4
3 3 4 4 4 4 4 4 3 3 2 2 2 2 2 2 2 2 2 2 3 2 2 1 1 2 2 4 5 2 1 1 1 1 1 2 3 5
3 3 4 4 3 3 3 3 3 2 2 2 2 2 2 2 2 2 2 2 2 2 2 1 2 3 4 5 3 9 2 1 2 1 2 3 4 6
3 3 4 4 3 3 2 3 3 3 2 2 2 2 2 2 2 3 2 3 3 3 3 2 2 3 3 4 4 7 13 4 2 3 3 3 5 9
3 3 3 3 3 3 3 3 3 3 3 2 2 2 2 2 3 3 4 7 5 3 3 3 2 11 1 1 6 10 10 11 9 9 7 4 4 7
3 3 3 3 3 3 3 2 3 3 2 2 2 2 1 2 3 3 3 2 2 2 2 2 2 1 2 4 9 8 8 9 10 10 11 11 9 11
3 3 3 2 2 2 2 2 2 2 2 1 2 1 2 3 3 2 2 2 2 2 3 6 7 8 9 10 11 11 11 10 11 11 12 12 12 12

GFSNE_con_lsi_075.txt.gz
Lid_Strength_Index
1 1 1 1 0 1 1 2 4 6 5 2 2 -0 -1 -1 -1 -1 -1 3 2 2 3 2 2 1 1 1 1 0 0 0 -0 -1 -1 -1 -1 -1
0 1 1 1 0 0 1 1 2 3 5 2 1 0 -1 -1 -1 -1 -1 1 3 3 3 2 2 2 2 2 2 1 1 1 1 0 -0 -0 -0 -0
0 0 1 -0 1 1 1 1 2 2 4 2 1 0 0 0 -0 -1 -1 -1 -0 4 4 4 5 4 4 3 2 2 1 1 1 1 1 1 0 -0
1 1 1 0 1 0 1 1 2 2 3 4 2 1 1 -0 0 0 -0 -1 -1 4 4 4 4 4 4 4 4 4 5 5 4 4 3 2 2 1
0 1 0 0 1 1 1 1 2 2 2 3 3 1 1 0 1 -0 -0 -0 -0 3 4 4 4 4 4 4 4 4 5 5 5 4 4 3 2 2
-0 0 0 0 1 1 1 1 1 2 2 3 3 3 2 1 1 2 2 1 1 -1 2 2 2 3 3 3 3 2 4 4 5 6 6 6 5 4
0 0 -0 0 1 1 1 1 1 2 2 3 3 3 3 3 3 1 2 1 1 -0 0 -0 -1 -1 -1 2 1 2 4 5 5 6 7 7 6 6
1 0 -0 1 1 4 4 5 2 2 3 3 3 3 3 2 2 2 2 3 3 -0 1 1 -0 -1 -1 -2 3 5 5 6 6 6 7 7 7 7
0 0 1 0 1 0 2 6 6 8 6 1 3 3 3 2 1 2 2 2 2 1 1 1 0 0 -1 -1 4 5 6 6 7 7 7 7 7 8
-0 0 0 0 0 1 0 1 1 1 3 3 1 1 1 0 0 1 1 1 1 0 -0 2 -0 0 -1 -1 5 6 6 7 7 7 7 8 8 8
-0 -0 0 0 4 8 1 1 2 1 7 8 7 8 8 7 3 1 2 2 3 2 0 1 1 1 0 -0 -1 5 7 6 6 7 7 7 8 9
0 0 5 2 7 8 1 2 2 2 3 2 2 5 6 5 8 -0 1 2 2 3 1 2 1 1 2 -1 -1 -1 -1 6 7 7 7 7 8 -0
1 1 0 8 10 8 10 2 2 1 4 1 1 3 2 1 0 -0 -0 1 2 2 0 0 1 1 1 1 0 -0 -1 -1 -1 0 8 8 8 5
1 1 1 8 10 9 10 10 11 7 1 2 2 2 2 1 1 0 -0 -1 -1 -0 -1 -1 1 0 1 2 2 0 -0 -1 -0 -0 -0 4 8 9
1 2 8 8 8 8 12 12 12 1 2 2 3 2 2 1 0 0 -0 -1 -1 -1 -1 -1 -0 0 -0 1 1 1 1 1 -1 -0 0 0 1 1
3 2 3 5 7 4 7 9 1 1 2 2 2 2 1 1 1 1 1 1 1 1 -1 -1 -1 -1 0 1 0 1 0 2 0 0 0 2 4 5
2 1 2 2 2 2 2 3 1 1 2 2 2 2 2 1 2 1 1 1 2 2 2 1 -0 0 2 1 2 1 1 1 0 1 1 5 5 5
2 2 3 2 3 3 3 3 2 3 2 1 1 2 2 2 2 1 1 2 2 2 2 1 1 1 1 3 5 2 1 1 2 1 1 4 6 7
2 3 3 3 3 3 2 2 3 2 1 1 2 2 2 2 2 2 2 2 2 2 1 1 1 2 4 5 4 11 4 1 1 2 3 4 6 7
2 3 3 2 3 2 2 2 2 2 2 2 2 1 1 2 2 2 2 2 2 2 2 1 1 1 3 4 9 11 14 4 2 2 3 4 6 9
2 2 2 2 2 2 2 2 2 2 2 2 2 1 2 2 2 2 2 6 4 2 3 2 1 10 2 4 7 10 11 12 10 7 3 2 3 5
2 2 2 2 2 2 2 2 2 2 2 2 2 1 2 2 2 2 2 2 2 2 2 1 0 1 1 3 8 10 10 10 10 12 12 11 9 10
2 2 2 2 1 1 1 2 2 2 2 1 2 2 1 2 1 2 2 1 1 2 2 6 8 6 7 8 9 8 8 8 8 9 10 12 12 12